| time (UTC) | temp F | wind direction | speed knots | gust knots | rain 1hr in | rain 24hr in | rain mn in | humidity % | barometer mb |
| 20260508213024 | 75 | 335 | 3.5 | 5.2 | 0.00 | 0.00 | 0.00 | 24 | 1017.4 |
| 20260508212018 | 74 | 324 | 3.5 | 7.0 | 0.00 | 0.00 | 0.00 | 24 | 1017.4 |
| 20260508211112 | 74 | 329 | 3.5 | 7.0 | 0.00 | 0.00 | 0.00 | 25 | 1017.7 |
| 20260508210025 | 73 | 340 | 3.5 | 6.1 | 0.00 | 0.00 | 0.00 | 24 | 1017.7 |
| 20260508205100 | 73 | 321 | 3.5 | 7.0 | 0.00 | 0.00 | 0.00 | 25 | 1017.9 |
| 20260508204053 | 75 | 319 | 3.5 | 5.2 | 0.00 | 0.00 | 0.00 | 25 | 1017.9 |
| 20260508203027 | 73 | 340 | 3.5 | 5.2 | 0.00 | 0.00 | 0.00 | 26 | 1018.0 |
| 20260508202022 | 73 | 334 | 4.3 | 7.8 | 0.00 | 0.00 | 0.00 | 26 | 1018.0 |
| 20260508201035 | 73 | 310 | 4.3 | 8.7 | 0.00 | 0.00 | 0.00 | 26 | 1017.9 |
| 20260508200028 | 72 | 279 | 2.6 | 4.3 | 0.00 | 0.00 | 0.00 | 26 | 1018.1 |
| 20260508195022 | 71 | 257 | 3.5 | 8.7 | 0.00 | 0.00 | 0.00 | 28 | 1018.1 |
| 20260508194017 | 70 | 250 | 6.1 | 12.2 | 0.00 | 0.00 | 0.00 | 28 | 1018.2 |
| 20260508193030 | 70 | 303 | 3.5 | 7.8 | 0.00 | 0.00 | 0.00 | 29 | 1018.2 |
| 20260508192024 | 70 | 271 | 3.5 | 7.0 | 0.00 | 0.00 | 0.00 | 30 | 1018.4 |
| 20260508191018 | 71 | 239 | 4.3 | 11.3 | 0.00 | 0.00 | 0.00 | 30 | 1018.3 |
| 20260508190032 | 69 | 270 | 4.3 | 9.6 | 0.00 | 0.00 | 0.00 | 31 | 1018.5 |
| 20260508185026 | 71 | 298 | 3.5 | 10.4 | 0.00 | 0.00 | 0.00 | 30 | 1018.6 |
| 20260508184100 | 69 | 161 | 1.7 | 3.5 | 0.00 | 0.00 | 0.00 | 30 | 1018.7 |
| 20260508183035 | 69 | 255 | 4.3 | 11.3 | 0.00 | 0.00 | 0.00 | 30 | 1018.8 |
| 20260508182029 | 69 | 293 | 1.7 | 3.5 | 0.00 | 0.00 | 0.00 | 30 | 1018.8 |
| 20260508181023 | 69 | 219 | 3.5 | 8.7 | 0.00 | 0.00 | 0.00 | 29 | 1018.8 |
| 20260508180017 | 69 | 229 | 4.3 | 9.6 | 0.00 | 0.00 | 0.00 | 29 | 1018.8 |
| 20260508175031 | 68 | 216 | 2.6 | 12.2 | 0.00 | 0.00 | 0.00 | 34 | 1018.9 |
| 20260508174025 | 67 | 260 | 2.6 | 7.0 | 0.00 | 0.00 | 0.00 | 36 | 1019.0 |
| 20260508173019 | 66 | 205 | 2.6 | 7.8 | 0.00 | 0.00 | 0.00 | 36 | 1019.0 |
| 20260508172033 | 67 | 225 | 3.5 | 7.8 | 0.00 | 0.00 | 0.00 | 36 | 1018.9 |
| 20260508171027 | 67 | 274 | 2.6 | 5.2 | 0.00 | 0.00 | 0.00 | 36 | 1018.9 |
| 20260508170020 | 67 | 233 | 3.5 | 7.8 | 0.00 | 0.00 | 0.00 | 35 | 1018.9 |
| 20260508165035 | 67 | 237 | 2.6 | 6.1 | 0.00 | 0.00 | 0.00 | 33 | 1018.8 |
| 20260508164028 | 66 | 233 | 2.6 | 6.1 | 0.00 | 0.00 | 0.00 | 34 | 1018.8 |
| 20260508163022 | 66 | 218 | 3.5 | 8.7 | 0.00 | 0.00 | 0.00 | 35 | 1018.6 |
| 20260508162016 | 65 | 221 | 2.6 | 6.1 | 0.00 | 0.00 | 0.00 | 38 | 1018.6 |
| 20260508161030 | 64 | 206 | 1.7 | 6.1 | 0.00 | 0.00 | 0.00 | 39 | 1018.6 |
| 20260508160024 | 64 | 212 | 2.6 | 7.0 | 0.00 | 0.00 | 0.00 | 39 | 1018.5 |
| 20260508155018 | 63 | 203 | 1.7 | 4.3 | 0.00 | 0.00 | 0.00 | 38 | 1018.5 |
| 20260508154032 | 64 | 206 | 1.7 | 5.2 | 0.00 | 0.00 | 0.00 | 38 | 1018.5 |
| 20260508153025 | 65 | 203 | 0.9 | 1.7 | 0.00 | 0.00 | 0.00 | 36 | 1018.5 |
| 20260508152020 | 63 | 176 | 0.9 | 3.5 | 0.00 | 0.00 | 0.00 | 37 | 1018.3 |
| 20260508151035 | 64 | 131 | 0.0 | 1.7 | 0.00 | 0.00 | 0.00 | 37 | 1018.2 |
| 20260508150029 | 63 | 76 | 0.9 | 2.6 | 0.00 | 0.00 | 0.00 | 40 | 1018.3 |
| 20260508145022 | 61 | 39 | 1.7 | 2.6 | 0.00 | 0.00 | 0.00 | 43 | 1018.2 |
| 20260508144016 | 59 | 314 | 0.0 | 0.9 | 0.00 | 0.00 | 0.00 | 49 | 1018.2 |
| 20260508143029 | 60 | 67 | 1.7 | 2.6 | 0.00 | 0.00 | 0.00 | 48 | 1018.1 |
| 20260508142023 | 57 | 80 | 0.9 | 0.9 | 0.00 | 0.00 | 0.00 | 51 | 1018.1 |
| 20260508141016 | 57 | 57 | 0.9 | 1.7 | 0.00 | 0.00 | 0.00 | 48 | 1017.9 |
| 20260508140030 | 57 | 79 | 0.9 | 1.7 | 0.00 | 0.00 | 0.00 | 49 | 1017.9 |
| 20260508135024 | 55 | 78 | 0.9 | 1.7 | 0.00 | 0.00 | 0.00 | 51 | 1017.8 |
| 20260508134017 | 54 | 119 | 0.9 | 1.7 | 0.00 | 0.00 | 0.00 | 50 | 1017.6 |
| 20260508133031 | 55 | 66 | 1.7 | 2.6 | 0.00 | 0.00 | 0.00 | 46 | 1017.5 |
| 20260508132024 | 54 | 54 | 1.7 | 2.6 | 0.00 | 0.00 | 0.00 | 47 | 1017.4 |
| 20260508131058 | 54 | 59 | 2.6 | 2.6 | 0.00 | 0.00 | 0.00 | 46 | 1017.3 |
| 20260508130112 | 54 | 63 | 2.6 | 2.6 | 0.00 | 0.00 | 0.00 | 45 | 1017.2 |
| 20260508125027 | 54 | 66 | 2.6 | 3.5 | 0.00 | 0.00 | 0.00 | 43 | 1017.1 |
| 20260508124101 | 54 | 56 | 1.7 | 2.6 | 0.00 | 0.00 | 0.00 | 44 | 1017.0 |
| 20260508123035 | 54 | 65 | 2.6 | 2.6 | 0.00 | 0.00 | 0.00 | 45 | 1016.9 |
| 20260508122030 | 54 | 81 | 2.6 | 3.5 | 0.00 | 0.00 | 0.00 | 45 | 1016.8 |
| 20260508121023 | 55 | 74 | 2.6 | 2.6 | 0.00 | 0.00 | 0.00 | 43 | 1016.8 |
| 20260508120018 | 55 | 76 | 2.6 | 3.5 | 0.00 | 0.00 | 0.00 | 43 | 1016.7 |
| 20260508115031 | 55 | 82 | 2.6 | 2.6 | 0.00 | 0.00 | 0.00 | 44 | 1016.7 |
| 20260508114024 | 55 | 75 | 1.7 | 2.6 | 0.00 | 0.00 | 0.00 | 46 | 1016.6 |
| 20260508113018 | 55 | 68 | 2.6 | 2.6 | 0.00 | 0.00 | 0.00 | 46 | 1016.6 |
| 20260508112032 | 55 | 71 | 2.6 | 2.6 | 0.00 | 0.00 | 0.00 | 47 | 1016.6 |
| 20260508111025 | 55 | 71 | 2.6 | 3.5 | 0.00 | 0.00 | 0.00 | 46 | 1016.6 |
| 20260508110019 | 56 | 77 | 2.6 | 3.5 | 0.00 | 0.00 | 0.00 | 46 | 1016.6 |
| 20260508105034 | 55 | 77 | 2.6 | 5.2 | 0.00 | 0.00 | 0.00 | 48 | 1016.6 |
| 20260508104027 | 55 | 68 | 2.6 | 2.6 | 0.00 | 0.00 | 0.00 | 49 | 1016.4 |
| 20260508103021 | 55 | 67 | 1.7 | 2.6 | 0.00 | 0.00 | 0.00 | 49 | 1016.5 |
| 20260508102035 | 54 | 69 | 2.6 | 2.6 | 0.00 | 0.00 | 0.00 | 49 | 1016.4 |
| 20260508101028 | 54 | 63 | 2.6 | 2.6 | 0.00 | 0.00 | 0.00 | 49 | 1016.4 |
| 20260508100021 | 54 | 63 | 1.7 | 2.6 | 0.00 | 0.00 | 0.00 | 50 | 1016.3 |
| 20260508095016 | 54 | 64 | 1.7 | 2.6 | 0.00 | 0.00 | 0.00 | 50 | 1016.2 |
| 20260508094029 | 55 | 79 | 1.7 | 2.6 | 0.00 | 0.00 | 0.00 | 51 | 1016.2 |
| 20260508093022 | 56 | 99 | 1.7 | 3.5 | 0.00 | 0.00 | 0.00 | 48 | 1016.2 |
| 20260508092015 | 55 | 100 | 1.7 | 2.6 | 0.00 | 0.00 | 0.00 | 50 | 1016.1 |
| 20260508091029 | 56 | 65 | 2.6 | 2.6 | 0.00 | 0.00 | 0.00 | 47 | 1015.9 |
| 20260508090057 | 55 | 77 | 2.6 | 3.5 | 0.00 | 0.00 | 0.00 | 50 | 1015.9 |
| 20260508085026 | 55 | 82 | 1.7 | 2.6 | 0.00 | 0.00 | 0.00 | 49 | 1016.1 |
| 20260508084019 | 55 | 82 | 1.7 | 1.7 | 0.00 | 0.00 | 0.00 | 48 | 1016.2 |
| 20260508083033 | 56 | 72 | 1.7 | 2.6 | 0.00 | 0.00 | 0.00 | 48 | 1016.1 |
| 20260508082028 | 57 | 57 | 1.7 | 2.6 | 0.00 | 0.00 | 0.00 | 46 | 1016.1 |
| 20260508081018 | 57 | 77 | 1.7 | 2.6 | 0.00 | 0.00 | 0.00 | 44 | 1016.1 |
| 20260508080029 | 58 | 72 | 2.6 | 3.5 | 0.00 | 0.00 | 0.00 | 44 | 1016.1 |
| 20260508075020 | 58 | 55 | 2.6 | 3.5 | 0.00 | 0.00 | 0.00 | 43 | 1016.1 |
| 20260508074033 | 58 | 43 | 2.6 | 3.5 | 0.00 | 0.00 | 0.00 | 43 | 1016.1 |
| 20260508073024 | 58 | 49 | 2.6 | 3.5 | 0.00 | 0.00 | 0.00 | 44 | 1016.1 |
| 20260508072106 | 58 | 47 | 2.6 | 3.5 | 0.00 | 0.00 | 0.00 | 44 | 1016.0 |
| 20260508071028 | 58 | 43 | 2.6 | 3.5 | 0.00 | 0.00 | 0.00 | 44 | 1016.0 |
| 20260508070020 | 58 | 48 | 2.6 | 3.5 | 0.00 | 0.00 | 0.00 | 44 | 1015.9 |
| 20260508065032 | 59 | 70 | 2.6 | 3.5 | 0.00 | 0.00 | 0.00 | 43 | 1015.9 |
| 20260508064144 | 60 | 71 | 2.6 | 3.5 | 0.00 | 0.00 | 0.00 | 40 | 1015.9 |
| 20260508063018 | 59 | 74 | 1.7 | 3.5 | 0.00 | 0.00 | 0.00 | 42 | 1015.8 |
| 20260508062032 | 59 | 64 | 1.7 | 1.7 | 0.00 | 0.00 | 0.00 | 42 | 1015.8 |
| 20260508061027 | 59 | 73 | 1.7 | 2.6 | 0.00 | 0.00 | 0.00 | 42 | 1015.7 |
| 20260508060020 | 60 | 60 | 0.9 | 2.6 | 0.00 | 0.00 | 0.00 | 42 | 1015.7 |
| 20260508055033 | 60 | 60 | 3.5 | 3.5 | 0.00 | 0.00 | 0.00 | 40 | 1015.6 |
| 20260508054023 | 60 | 60 | 3.5 | 4.3 | 0.00 | 0.00 | 0.00 | 40 | 1015.5 |
| 20260508053058 | 60 | 45 | 2.6 | 3.5 | 0.00 | 0.00 | 0.00 | 39 | 1015.5 |
| 20260508052112 | 60 | 48 | 3.5 | 3.5 | 0.00 | 0.00 | 0.00 | 40 | 1015.4 |
| 20260508051026 | 60 | 31 | 2.6 | 3.5 | 0.00 | 0.00 | 0.00 | 40 | 1015.5 |
| 20260508050020 | 60 | 40 | 2.6 | 3.5 | 0.00 | 0.00 | 0.00 | 40 | 1015.4 |
| 20260508045113 | 61 | 30 | 2.6 | 3.5 | 0.00 | 0.00 | 0.00 | 39 | 1015.4 |
| 20260508044027 | 61 | 30 | 2.6 | 3.5 | 0.00 | 0.00 | 0.00 | 39 | 1015.5 |
| 20260508043021 | 61 | 32 | 2.6 | 3.5 | 0.00 | 0.00 | 0.00 | 39 | 1015.4 |
| 20260508042015 | 62 | 60 | 3.5 | 4.3 | 0.00 | 0.00 | 0.00 | 38 | 1015.5 |
| 20260508041030 | 61 | 61 | 3.5 | 4.3 | 0.00 | 0.00 | 0.00 | 39 | 1015.3 |
| 20260508040023 | 62 | 46 | 2.6 | 3.5 | 0.00 | 0.00 | 0.00 | 39 | 1015.2 |
| 20260508035016 | 62 | 30 | 2.6 | 3.5 | 0.00 | 0.00 | 0.00 | 39 | 1015.2 |
| 20260508034030 | 62 | 49 | 2.6 | 4.3 | 0.00 | 0.00 | 0.00 | 39 | 1015.2 |
| 20260508033024 | 62 | 39 | 2.6 | 3.5 | 0.00 | 0.00 | 0.00 | 38 | 1015.2 |
| 20260508032018 | 63 | 46 | 3.5 | 4.3 | 0.00 | 0.00 | 0.00 | 38 | 1015.0 |
| 20260508031031 | 63 | 49 | 3.5 | 3.5 | 0.00 | 0.00 | 0.00 | 38 | 1014.8 |
| 20260508030025 | 63 | 33 | 2.6 | 3.5 | 0.00 | 0.00 | 0.00 | 38 | 1014.9 |
| 20260508025019 | 64 | 32 | 3.5 | 3.5 | 0.00 | 0.00 | 0.00 | 37 | 1014.9 |
| 20260508024033 | 65 | 43 | 2.6 | 3.5 | 0.00 | 0.00 | 0.00 | 37 | 1014.8 |
| 20260508023027 | 68 | 43 | 2.6 | 3.5 | 0.00 | 0.00 | 0.00 | 34 | 1014.8 |
| 20260508022101 | 69 | 53 | 1.7 | 2.6 | 0.00 | 0.00 | 0.00 | 32 | 1014.8 |
| 20260508021035 | 73 | 40 | 0.9 | 1.7 | 0.00 | 0.00 | 0.00 | 29 | 1014.5 |
| 20260508020029 | 74 | 118 | 0.0 | 0.9 | 0.00 | 0.00 | 0.00 | 28 | 1014.7 |
| 20260508015022 | 74 | 0.0 | 1.7 | 0.00 | 0.00 | 0.00 | 27 | 1014.7 | |
| 20260508014016 | 75 | 302 | 0.0 | 1.7 | 0.00 | 0.00 | 0.00 | 26 | 1014.7 |
| 20260508013030 | 74 | 280 | 1.7 | 4.3 | 0.00 | 0.00 | 0.00 | 26 | 1014.7 |
| 20260508012023 | 75 | 292 | 0.9 | 3.5 | 0.00 | 0.00 | 0.00 | 26 | 1014.7 |
| 20260508011016 | 75 | 273 | 1.7 | 4.3 | 0.00 | 0.00 | 0.00 | 26 | 1014.8 |
| 20260508010030 | 75 | 299 | 1.7 | 5.2 | 0.00 | 0.00 | 0.00 | 26 | 1014.8 |
| 20260508005022 | 75 | 256 | 2.6 | 4.3 | 0.00 | 0.00 | 0.00 | 26 | 1014.7 |
| 20260508004016 | 75 | 273 | 2.6 | 5.2 | 0.00 | 0.00 | 0.00 | 25 | 1014.9 |
| 20260508003028 | 76 | 280 | 1.7 | 3.5 | 0.00 | 0.00 | 0.00 | 25 | 1015.0 |
| 20260508002022 | 74 | 7 | 1.7 | 3.5 | 0.00 | 0.00 | 0.00 | 26 | 1015.1 |
| 20260508001035 | 76 | 268 | 2.6 | 7.0 | 0.00 | 0.00 | 0.00 | 26 | 1015.1 |
| 20260508000033 | 72 | 98 | 0.9 | 2.6 | 0.00 | 0.00 | 0.00 | 27 | 1015.2 |
| 20260507235022 | 72 | 157 | 0.9 | 2.6 | 0.00 | 0.00 | 0.00 | 27 | 1015.3 |
| 20260507234016 | 73 | 272 | 0.9 | 6.1 | 0.00 | 0.00 | 0.00 | 28 | 1015.4 |
| 20260507233030 | 72 | 22 | 0.9 | 2.6 | 0.00 | 0.00 | 0.00 | 28 | 1015.5 |
| 20260507232023 | 72 | 232 | 2.6 | 6.1 | 0.00 | 0.00 | 0.00 | 27 | 1015.6 |
| 20260507231017 | 74 | 330 | 1.7 | 4.3 | 0.00 | 0.00 | 0.00 | 26 | 1015.7 |
| 20260507230031 | 73 | 288 | 1.7 | 4.3 | 0.00 | 0.00 | 0.00 | 27 | 1015.9 |
| 20260507225025 | 72 | 360 | 0.9 | 2.6 | 0.00 | 0.00 | 0.00 | 28 | 1016.2 |
| 20260507224020 | 73 | 247 | 1.7 | 6.1 | 0.00 | 0.00 | 0.00 | 29 | 1016.2 |
| 20260507223034 | 72 | 287 | 0.9 | 2.6 | 0.00 | 0.00 | 0.00 | 28 | 1016.5 |
| 20260507222029 | 72 | 298 | 2.6 | 7.8 | 0.00 | 0.00 | 0.00 | 29 | 1016.5 |
| 20260507221023 | 71 | 262 | 2.6 | 9.6 | 0.00 | 0.00 | 0.00 | 28 | 1016.7 |
| 20260507220017 | 71 | 272 | 0.9 | 5.2 | 0.00 | 0.00 | 0.00 | 29 | 1016.7 |
| 20260507215031 | 71 | 271 | 3.5 | 8.7 | 0.00 | 0.00 | 0.00 | 28 | 1016.9 |
| 20260507214027 | 71 | 256 | 2.6 | 7.8 | 0.00 | 0.00 | 0.00 | 28 | 1017.0 |